Regional Weather Roundup
Issued by NWS Jackson, KY

Home | Current Version | Previous Version | Graphics & Text | Print | Product List | Glossary On
Versions: 1 2 3 4 5 6 7 8 9 10 11 12 13 14 15 16 17 18 19 20 21 22 23 24 25 26 27 28 29 30 31 32 33 34 35 36 37 38 39 40 41 42 43 44 45 46 47 48 49 50
000
ASUS43 KJKL 020310
RWRJKL

EAST KENTUCKY HOURLY WEATHER ROUNDUP
NATIONAL WEATHER SERVICE JACKSON KY
1100 PM EDT WED JUL 01 2015

NOTE: "FAIR" INDICATES FEW OR NO CLOUDS BELOW 12,000 FEET WITH
NO SIGNIFICANT WEATHER AND/OR OBSTRUCTIONS TO VISIBILITY.

* THESE REPORTS ARE NOT UNDER NWS QUALITY CONTROL AND MAY NOT
  REPORT WEATHER SUCH AS PRECIPITATION AND FOG.

KYZ079-080-083-085-087-088-110-112-115-119-120-020400
...EASTERN KENTUCKY...

CITY           SKY/WX    TMP DP  RH WIND       PRES   REMARKS
JACKSON        CLOUDY    70  67  90 CALM      29.97S
LONDON         CLOUDY    69  64  84 SW8       29.98S
SOMERSET*      CLOUDY    64  64 100 SW6       30.00R
MONTICELLO*    MOCLDY    68  68 100 CALM      30.02S
MIDDLESBORO*   CLOUDY    70  66  87 CALM      30.00R
HARLAN APT*      N/A     68  68 100 CALM      30.01R VSB 1/4
HAZARD APT*    RAIN      70  70 100 CALM      29.98R
BLACK MTN*       N/A     61  61 100 SW7         N/A
PIKEVILLE APT* CLOUDY    70  66  88 CALM      29.98R
BIG SANDY*     CLOUDY    69  69  98 CALM      29.97S FOG
MOREHEAD APT*  CLOUDY    68  66  94 CALM      29.97S FOG
$$

KYZ035-036-041-042-044-050-067-078-099-020400
...CENTRAL KENTUCKY...

CITY           SKY/WX    TMP DP  RH WIND       PRES   REMARKS
MT STERLING*   CLOUDY    68  68 100 CALM      29.98R FOG
FLEMING/MASON* PTCLDY    68  66  94 S3        29.96R FOG
DANVILLE*      MOCLDY    68  68 100 CALM      29.97R FOG
RICHMOND*      CLOUDY    72  68  88 S5        29.96R
LEXINGTON      CLOUDY    70  68  93 SW3       29.95R FOG
FRANKFORT      MOCLDY    69  67  93 CALM      29.94R FOG
$$

KYZ091>093-OHZ055-061-077-WVZ005-015-034-035-042-020400
...SOUTHERN OHIO/WEST VIRGINIA...

CITY           SKY/WX    TMP DP  RH WIND       PRES   REMARKS
COVINGTON      CLOUDY    70  65  84 CALM      29.94R
COLUMBUS       PTCLDY    68  59  73 CALM      29.93R
DAYTON         MOCLDY    70  61  73 CALM      29.95R
WILMINGTON     CLEAR     67  61  81 CALM      29.94R
HUNTINGTON     MOCLDY    71  68  90 CALM      29.93R
CHARLESTON     MOCLDY    70  68  93 S5        29.95R
PINEVILLE*     CLOUDY    67  67 100 MISG      30.04R FOG
BECKLEY        MOCLDY    66  62  87 SW3       30.02R FOG
BLUEFIELD      CLOUDY    68  61  78 W6        30.05R
$$

VAZ002-007-008-TNZ017-027-036-066-071-020400
...SOUTHWEST VIRGINIA/EAST TENNESSEE...

CITY           SKY/WX    TMP DP  RH WIND       PRES   REMARKS
WISE*          CLOUDY    64  64 100 SW6       30.05R FOG
JONESVILLE*      N/A    N/A N/A N/A MISG        N/A
ABINGDON*      LGT RAIN  68  67  98 CALM      30.04R
BRISTOL        LGT RAIN  68  66  93 CALM      30.02R
KNOXVILLE      CLOUDY    69  66  90 W9        30.00R
OAK RIDGE      CLOUDY    71  67  87 SW3       30.02R
CROSSVILLE     CLOUDY    67  63  87 W5        30.05R
NASHVILLE      MOCLDY    70  69  97 S8        29.98S
$$

...KEY TO REMARKS...
VSB - VISIBILITY IN MILES
WCI - WIND CHILL INDEX
HX  - HEAT INDEX

$$



USA.gov is the U.S. government's official web portal to all federal, state and local government web resources and services.